[[{"header":{"parameterUnit":"m.s-1","parameterCategory":1,"la1":30.2991,"la2":30.254,"lo1":-89.0895,"lo2":-89.0444,"dy":0.0017,"dx":0.0017,"nx":28,"ny":28,"refTime":"2024-12-02T03:00:00:Z","depth":0,"parameterNumber":2,"parameterNumberName":"U-component_of_WINDS"},"data":[0,0,0,0,0,0,0,0,0,0,0,0,0,0,0,0,0,0,0,0,0,0,0,0,0,0,0,0,0,0,0,0,0,0,0,0,0,0,0,0,0,0,0,0,0,0,0,0,0,0,0,0,0,0,0,0,0,0,-2.2513,-2.2513,0,-2.2552,-2.2552,-2.2553,-2.2501,-2.2499,-2.2497,-2.2496,-2.2535,-2.2538,-2.2541,0,0,0,0,0,0,0,0,0,0,0,0,0,-2.2392,-2.2395,-2.2513,-2.2513,-2.2514,-2.2552,-2.2552,-2.2553,-2.2502,-2.2499,-2.2497,-2.2495,-2.2534,-2.2538,-2.2541,0,0,0,0,0,0,0,0,0,0,0,0,0,-2.2439,-2.2396,-2.2513,-2.2493,-2.2491,-2.2552,-2.2552,-2.2553,-2.2502,-2.2499,-2.2496,-2.2494,-2.2533,-2.2537,-2.2541,-2.2623,0,0,-2.2554,-2.2556,0,0,0,0,0,0,0,0,-2.2437,-2.2444,-2.2495,-2.2494,-2.2493,-2.2519,-2.2524,-2.2576,-2.2503,-2.2498,-2.2496,-2.2492,-2.2532,-2.2536,-2.2549,-2.2625,-2.2627,-2.2554,-2.2557,-2.2559,-2.256,0,0,0,0,0,0,0,-2.2434,-2.2442,-2.2528,-2.2496,-2.2495,-2.2481,-2.2485,-2.2534,-2.253,-2.2498,-2.2495,-2.25,-2.2531,-2.2546,-2.255,-2.2627,-2.2554,-2.2558,-2.2561,-2.2562,-2.2769,-2.2772,0,0,0,0,0,0,-2.2433,-2.2439,-2.2527,-2.2529,-2.2457,-2.2486,-2.249,-2.2513,-2.2529,-2.2529,-2.2502,-2.2497,-2.254,-2.2545,-2.2551,-2.2647,-2.2559,-2.2563,-2.2565,-2.2766,-2.277,-2.2773,0,0,0,0,0,0,-2.243,-2.2441,-2.2525,-2.2484,-2.2493,-2.2491,-2.2518,-2.2516,-2.253,-2.2533,-2.2531,-2.2518,-2.2538,-2.2545,-2.2605,-2.2647,-2.2565,-2.2568,-2.2763,-2.2768,-2.2772,-2.2839,0,0,0,0,0,0,-2.2427,-2.2441,-2.2472,-2.2485,-2.2496,-2.258,-2.252,-2.2518,-2.2538,-2.2532,-2.2547,-2.2547,-2.2536,-2.2599,-2.2609,-2.2652,-2.2572,-2.2759,-2.2765,-2.277,-2.2833,-2.2845,-2.2856,0,0,0,0,0,-2.2423,-2.249,-2.2474,-2.2485,-2.2535,-2.2582,-2.2588,-2.2575,-2.2541,-2.2573,-2.2574,-2.2547,-2.2641,-2.2606,-2.2617,-2.2661,-2.2756,-2.2763,-2.277,-2.2828,-2.2843,-2.2855,0,0,0,0,0,0,-2.2483,-2.2491,-2.2474,-2.2547,-2.2564,-2.2573,-2.2612,-2.2591,-2.2618,-2.2612,-2.2593,-2.2597,-2.2661,-2.2667,-2.2627,-2.274,-2.2693,-2.2702,-2.2734,-2.2748,-2.2759,-2.2756,-2.2575,0,0,0,0,0,-2.2504,-2.2542,-2.2547,-2.2611,-2.2621,-2.2615,-2.2635,-2.2623,-2.264,-2.2647,-2.2653,-2.267,-2.2703,-2.2726,-2.2757,-2.2834,-2.2835,-2.2869,-2.2881,-2.289,-2.2898,-2.2937,-2.2952,-2.2795,-2.2795,-2.2795,0,0,-2.2549,-2.2559,-2.2584,-2.2623,-2.2635,-2.2674,-2.2622,-2.2666,-2.2694,-2.2654,-2.271,-2.2715,-2.2733,-2.2801,-2.2832,-2.2808,-2.2942,-2.2898,-2.2906,-2.2909,-2.2946,-2.2961,-2.2974,-2.28,-2.2799,-2.2798,0,0,-2.2651,-2.2663,-2.2716,-2.2729,-2.2748,-2.2743,-2.2756,-2.2769,-2.277,-2.2826,-2.2797,-2.283,-2.2888,-2.2902,-2.2916,-2.3022,-2.2997,-2.3032,-2.3092,-2.313,-2.3143,-2.3153,-2.319,-2.3203,-2.3041,-2.3041,-2.3041,0,-2.2705,-2.2763,-2.2746,-2.2792,-2.2809,-2.2775,-2.2828,-2.2841,-2.2869,-2.2882,-2.2856,-2.2927,-2.2937,-2.3007,-2.3032,-2.3046,-2.3059,-2.3031,-2.3142,-2.3153,-2.3163,-2.3197,-2.3211,-2.3045,-2.3044,-2.3044,-2.3044,0,-2.2827,-2.2867,-2.2908,-2.2936,-2.2958,-2.3007,-2.2998,-2.3022,-2.3008,-2.3006,-2.3063,-2.3073,-2.3105,-2.3121,-2.3108,-2.3189,-2.3174,-2.3145,-2.3098,-2.3182,-2.3214,-2.3227,-2.3051,-2.3049,-2.3048,-2.3047,0,0,-2.2968,-2.2985,-2.3,-2.3011,-2.3029,-2.3059,-2.3107,-2.3137,-2.3158,-2.3178,-2.3217,-2.3266,-2.3239,-2.3256,-2.3243,-2.3277,-2.3359,-2.3244,-2.3244,-2.3264,-2.3447,-2.3468,-2.3484,-2.3343,-2.3345,-2.3347,-2.3445,0,-2.3069,-2.3151,-2.3137,-2.3216,-2.3252,-2.3219,-2.3259,-2.3274,-2.3273,-2.3304,-2.3302,-2.3337,-2.33,-2.331,-2.3342,-2.3342,-2.3395,-2.3335,-2.3377,-2.3379,-2.3373,-2.3501,-2.3523,-2.3616,-2.3458,-2.346,-2.3462,0,-2.3198,-2.3222,-2.3305,-2.3315,-2.3329,-2.3367,-2.3393,-2.3422,-2.3438,-2.3435,-2.3453,-2.3434,-2.3479,-2.3432,-2.3494,-2.3453,-2.347,-2.3472,-2.3475,-2.3478,-2.3425,-2.3506,-2.3645,-2.3659,-2.3481,-2.348,-2.3478,0,-2.3291,-2.3345,-2.34,-2.3411,-2.3425,-2.3451,-2.3458,-2.3471,-2.349,-2.3513,-2.3524,-2.3553,-2.3568,-2.359,-2.3578,-2.3545,-2.3642,-2.3594,-2.364,-2.364,-2.3662,-2.3661,-2.3804,-2.3674,-2.3674,-2.3673,-2.3673,0,-2.3405,-2.3457,-2.3442,-2.3477,-2.3533,-2.3516,-2.3572,-2.3575,-2.3586,-2.362,-2.3593,-2.3625,-2.3608,-2.3638,-2.3629,-2.3682,-2.3689,-2.3687,-2.3684,-2.3689,-2.3689,-2.3699,-2.3692,-2.3677,-2.3676,-2.3675,-2.3675,0,-2.3519,-2.3512,-2.357,-2.3578,-2.3581,-2.3622,-2.3628,-2.3659,-2.3656,-2.3699,-2.3708,-2.3703,-2.3737,-2.3728,-2.3765,-2.3759,-2.3825,-2.3814,-2.382,-2.3817,-2.3863,-2.3859,-2.4018,-2.4037,-2.3895,-2.3897,-2.3898,0,-2.3592,-2.363,-2.3642,-2.3662,-2.3671,-2.3705,-2.3724,-2.3708,-2.3729,-2.3748,-2.3777,-2.3809,-2.3834,-2.389,-2.3889,-2.3917,-2.3906,-2.396,-2.391,-2.3914,-2.3906,-2.3903,-2.3907,-2.397,-2.3972,-2.3973,-2.3974,0,-2.3721,-2.3715,-2.3744,-2.3771,-2.3794,-2.3815,-2.3832,-2.3851,-2.3836,-2.3861,-2.3895,-2.3914,-2.3952,-2.3983,-2.4009,-2.4015,-2.3992,-2.399,-2.4002,-2.4007,-2.4008,-2.4007,-2.3846,-2.3986,-2.3985,-2.3984,-2.3983,-2.3983,-2.3816,-2.3849,-2.3861,-2.3893,-2.3905,-2.3922,-2.3952,-2.3952,-2.398,-2.401,-2.3998,-2.4038,-2.4051,-2.4082,-2.4092,-2.4122,-2.4101,-2.4119,-2.4123,-2.4128,-2.4133,-2.4004,-2.4126,-2.4126,-2.4126,-2.4125,-2.4125,0,-2.3944,-2.395,-2.398,-2.4005,-2.403,-2.4006,-2.4024,-2.4046,-2.4081,-2.4095,-2.412,-2.4159,-2.4189,-2.419,-2.4218,-2.4242,-2.4232,-2.4249,-2.4247,-2.4249,-2.415,-2.4137,-2.4257,-2.4257,-2.4257,-2.4257,-2.4257,-2.4257,-2.4013,-2.4066,-2.4061,-2.4119,-2.4124,-2.4163,-2.4175,-2.419,-2.4201,-2.4246,-2.427,-2.4271,-2.4279,-2.4307,-2.4333,-2.4333,-2.4344,-2.4366,-2.4361,-2.4269,-2.4256,-2.4243,-2.423,-2.4368,-2.4368,-2.4457,-2.4458,-2.4458]},{"header":{"parameterUnit":"m.s-1","parameterCategory":1,"la1":30.2991,"la2":30.254,"lo1":-89.0895,"lo2":-89.0444,"dy":0.0017,"dx":0.0017,"nx":28,"ny":28,"refTime":"2024-12-02T03:00:00:Z","depth":0,"parameterNumber":3,"parameterNumberName":"V-component_of_WINDS"},"data":[0,0,0,0,0,0,0,0,0,0,0,0,0,0,0,0,0,0,0,0,0,0,0,0,0,0,0,0,0,0,0,0,0,0,0,0,0,0,0,0,0,0,0,0,0,0,0,0,0,0,0,0,0,0,0,0,0,0,-3.9747,-3.9748,0,-3.9833,-3.9834,-3.9835,-3.9801,-3.9799,-3.9797,-3.9795,-3.988,-3.9884,-3.9888,0,0,0,0,0,0,0,0,0,0,0,0,0,-3.955,-3.9553,-3.9747,-3.9748,-3.9749,-3.9833,-3.9834,-3.9835,-3.9801,-3.9799,-3.9796,-3.9794,-3.9879,-3.9884,-3.9889,0,0,0,0,0,0,0,0,0,0,0,0,0,-3.9635,-3.9555,-3.9747,-3.9742,-3.9743,-3.9833,-3.9834,-3.9836,-3.9802,-3.9799,-3.9796,-3.9793,-3.9877,-3.9883,-3.9889,-3.9988,0,0,-3.9908,-3.9911,0,0,0,0,0,0,0,0,-3.9631,-3.9643,-3.9742,-3.9743,-3.9744,-3.9803,-3.9796,-3.9887,-3.9802,-3.9779,-3.9795,-3.9791,-3.9857,-3.9864,-3.9887,-3.9992,-3.9996,-3.9909,-3.9913,-3.9915,-3.9917,0,0,0,0,0,0,0,-3.9625,-3.9639,-3.9781,-3.9744,-3.9745,-3.9735,-3.9744,-3.9813,-3.9834,-3.9781,-3.9779,-3.979,-3.9857,-3.9881,-3.9889,-3.9997,-3.9909,-3.9914,-3.9918,-3.992,-4.0184,-4.0187,0,0,0,0,0,0,-3.9619,-3.9634,-3.9778,-3.9784,-3.9679,-3.9741,-3.9751,-3.9787,-3.9833,-3.9837,-3.9792,-3.9788,-3.9872,-3.9882,-3.9892,-4.0008,-3.9915,-3.9921,-3.9925,-4.0181,-4.0185,-4.0188,0,0,0,0,0,0,-3.9615,-3.9632,-3.9775,-3.9708,-3.9726,-3.9747,-3.9789,-3.979,-3.9815,-3.9841,-3.9844,-3.9814,-3.987,-3.9883,-3.9964,-4.0011,-3.9924,-3.9929,-4.0177,-4.0182,-4.0187,-4.0244,0,0,0,0,0,0,-3.9609,-3.9631,-3.967,-3.971,-3.9729,-3.9847,-3.9792,-3.9794,-3.9826,-3.9821,-3.9862,-3.9866,-3.9869,-3.9955,-3.997,-4.0018,-3.9934,-4.0173,-4.0179,-4.0185,-4.0238,-4.025,-4.026,0,0,0,0,0,-3.9602,-3.9682,-3.9672,-3.9689,-3.9779,-3.985,-3.9861,-3.9863,-3.983,-3.9868,-3.9885,-3.9865,-4.0004,-3.9963,-3.998,-4.0031,-4.017,-4.0177,-4.0184,-4.0233,-4.0248,-4.026,0,0,0,0,0,0,-3.9647,-3.9688,-3.9676,-3.9772,-3.9808,-3.9844,-3.9892,-3.9879,-3.9925,-3.9918,-3.9918,-3.9927,-4.001,-4.0029,-3.9983,-4.0127,-4.0081,-4.0093,-4.0112,-4.0127,-4.0138,-4.0131,-3.9939,0,0,0,0,0,-3.9668,-3.9724,-3.9756,-3.9837,-3.9855,-3.9871,-3.9902,-3.99,-3.9937,-3.9952,-3.9974,-4.001,-4.0061,-4.0095,-4.0144,-4.024,-4.0248,-4.0283,-4.0295,-4.0304,-4.0313,-4.0363,-4.0379,-4.0213,-4.0212,-4.0212,0,0,-3.9712,-3.9741,-3.9776,-3.9846,-3.9874,-3.993,-3.9884,-3.9946,-3.9987,-3.9961,-4.0038,-4.0056,-4.0096,-4.0184,-4.0224,-4.0202,-4.0361,-4.0313,-4.032,-4.0325,-4.0372,-4.0388,-4.0402,-4.0218,-4.0217,-4.0216,0,0,-3.982,-3.9849,-3.9918,-3.9947,-3.9989,-3.9999,-4.0015,-4.0054,-4.0064,-4.0142,-4.0124,-4.0172,-4.0261,-4.0289,-4.0315,-4.0433,-4.0415,-4.0448,-4.0507,-4.0556,-4.0569,-4.0581,-4.0621,-4.0635,-4.0458,-4.0458,-4.0458,0,-3.9869,-3.9954,-3.9955,-4.0018,-4.0049,-4.0029,-4.0098,-4.0125,-4.0181,-4.0202,-4.0177,-4.0287,-4.0312,-4.0406,-4.0434,-4.0457,-4.0474,-4.0443,-4.0568,-4.0579,-4.059,-4.0628,-4.0643,-4.0462,-4.0461,-4.0461,-4.046,0,-4.001,-4.007,-4.012,-4.0175,-4.0211,-4.0277,-4.0287,-4.0324,-4.0319,-4.033,-4.0409,-4.0438,-4.0492,-4.0514,-4.051,-4.0607,-4.0592,-4.0567,-4.0521,-4.0609,-4.0645,-4.066,-4.0467,-4.0465,-4.0464,-4.0463,0,0,-4.0149,-4.0203,-4.0222,-4.0246,-4.029,-4.0335,-4.0399,-4.0452,-4.0482,-4.0521,-4.0574,-4.0649,-4.0626,-4.0656,-4.0654,-4.0697,-4.0786,-4.0667,-4.0668,-4.0687,-4.0892,-4.0909,-4.0926,-4.0775,-4.0778,-4.078,-4.0888,0,-4.0259,-4.0373,-4.0375,-4.0479,-4.0532,-4.0513,-4.0568,-4.0601,-4.0613,-4.0659,-4.0672,-4.0725,-4.0692,-4.0709,-4.0751,-4.0766,-4.0827,-4.0759,-4.0822,-4.0824,-4.0811,-4.0945,-4.0964,-4.1065,-4.0902,-4.0905,-4.0907,0,-4.0403,-4.0447,-4.0556,-4.0591,-4.0613,-4.0663,-4.0711,-4.0756,-4.0791,-4.0797,-4.083,-4.0821,-4.0885,-4.0837,-4.0924,-4.0877,-4.0903,-4.0915,-4.0918,-4.0923,-4.087,-4.0952,-4.1097,-4.1112,-4.0929,-4.0927,-4.0925,0,-4.0491,-4.0577,-4.0653,-4.0674,-4.0718,-4.0753,-4.0772,-4.0805,-4.0836,-4.0878,-4.0897,-4.0946,-4.0971,-4.1008,-4.1012,-4.0978,-4.1099,-4.1052,-4.1104,-4.1104,-4.1129,-4.1127,-4.1279,-4.1148,-4.1148,-4.1148,-4.1148,0,-4.0613,-4.068,-4.0693,-4.0739,-4.0812,-4.0814,-4.0886,-4.0903,-4.0932,-4.098,-4.0967,-4.1012,-4.1015,-4.1061,-4.1065,-4.1134,-4.1147,-4.1152,-4.1152,-4.1152,-4.1151,-4.1168,-4.1161,-4.1152,-4.1151,-4.115,-4.115,0,-4.0724,-4.0735,-4.0816,-4.085,-4.0861,-4.0913,-4.0942,-4.0985,-4.0996,-4.1057,-4.1071,-4.1088,-4.1141,-4.1149,-4.1211,-4.1213,-4.1297,-4.129,-4.1285,-4.1283,-4.1334,-4.1328,-4.1501,-4.1522,-4.1379,-4.1381,-4.1382,0,-4.08,-4.0851,-4.0891,-4.0922,-4.0944,-4.0995,-4.1026,-4.1029,-4.1062,-4.1106,-4.1144,-4.1195,-4.1237,-4.1323,-4.1339,-4.1386,-4.138,-4.1437,-4.1387,-4.1385,-4.1379,-4.1375,-4.1379,-4.1446,-4.1448,-4.1449,-4.145,0,-4.0934,-4.0937,-4.0983,-4.1031,-4.1069,-4.1107,-4.1143,-4.1169,-4.1176,-4.1214,-4.1268,-4.13,-4.1364,-4.1415,-4.1461,-4.148,-4.1466,-4.1466,-4.148,-4.148,-4.1475,-4.1477,-4.1309,-4.1462,-4.146,-4.146,-4.1459,-4.1459,-4.1029,-4.1072,-4.1107,-4.1158,-4.1185,-4.1218,-4.126,-4.1276,-4.1322,-4.1374,-4.1373,-4.1432,-4.1465,-4.1526,-4.1547,-4.1593,-4.1574,-4.1595,-4.16,-4.1605,-4.1609,-4.1468,-4.1601,-4.1601,-4.1601,-4.1601,-4.16,0,-4.116,-4.1181,-4.1229,-4.1279,-4.1319,-4.1303,-4.1341,-4.1375,-4.1428,-4.146,-4.1501,-4.1562,-4.1611,-4.1632,-4.168,-4.1712,-4.1706,-4.1724,-4.1721,-4.1725,-4.1624,-4.1606,-4.1728,-4.1728,-4.1727,-4.1727,-4.1727,-4.1727,-4.1233,-4.1305,-4.1312,-4.1397,-4.1417,-4.1475,-4.1498,-4.1528,-4.1553,-4.1623,-4.1664,-4.1677,-4.1704,-4.1753,-4.1797,-4.1801,-4.1819,-4.1839,-4.1841,-4.1745,-4.1733,-4.172,-4.1703,-4.1843,-4.1843,-4.1938,-4.1939,-4.194]}]]